Time,TemperatureF,DewpointF,PressureIn,WindDirection,WindDirectionDegrees,WindSpeedMPH,WindSpeedGustMPH,Humidity,HourlyPrecipIn,Conditions,Clouds,dailyrainin,SoftwareType,DateUTC
2013-04-09 00:01:00,62.4,48.8,30.25,SE,135,0.0,0.0,61,0.00,,,0.00,WUHU216HW,2013-04-09 04:01:00,
2013-04-09 00:06:00,62.2,48.6,30.25,SE,135,0.0,0.0,61,0.00,,,0.00,WUHU216HW,2013-04-09 04:06:00,
2013-04-09 00:11:00,62.2,48.6,30.25,SE,135,0.0,0.0,61,0.00,,,0.00,WUHU216HW,2013-04-09 04:11:00,
2013-04-09 00:16:00,62.2,48.6,30.25,SE,135,0.0,0.0,61,0.00,,,0.00,WUHU216HW,2013-04-09 04:16:00,
2013-04-09 00:21:00,62.0,48.9,30.25,SE,135,0.0,0.0,62,0.00,,,0.00,WUHU216HW,2013-04-09 04:21:00,
2013-04-09 00:26:00,61.8,48.7,30.25,SE,135,0.0,0.0,62,0.00,,,0.00,WUHU216HW,2013-04-09 04:26:00,
2013-04-09 00:31:00,61.8,48.7,30.25,SE,135,0.0,0.0,62,0.00,,,0.00,WUHU216HW,2013-04-09 04:31:00,
2013-04-09 00:36:00,61.7,48.5,30.25,SSE,158,0.0,0.0,62,0.00,,,0.00,WUHU216HW,2013-04-09 04:36:00,
2013-04-09 00:41:00,61.5,48.4,30.25,SE,135,0.0,0.0,62,0.00,,,0.00,WUHU216HW,2013-04-09 04:41:00,
2013-04-09 00:46:00,61.5,48.4,30.25,SE,135,0.0,0.0,62,0.00,,,0.00,WUHU216HW,2013-04-09 04:46:00,
2013-04-09 00:51:00,61.5,48.4,30.25,SSE,158,0.0,0.0,62,0.00,,,0.00,WUHU216HW,2013-04-09 04:51:00,
2013-04-09 00:56:00,61.3,48.2,30.25,SSE,158,0.0,0.0,62,0.00,,,0.00,WUHU216HW,2013-04-09 04:56:00,
2013-04-09 01:01:00,61.3,48.2,30.25,ESE,113,0.0,0.0,62,0.00,,,0.00,WUHU216HW,2013-04-09 05:01:00,
2013-04-09 01:06:00,61.1,48.0,30.26,SE,135,0.0,0.0,62,0.00,,,0.00,WUHU216HW,2013-04-09 05:06:00,
2013-04-09 01:11:00,60.9,47.9,30.26,SE,135,0.0,0.0,62,0.00,,,0.00,WUHU216HW,2013-04-09 05:11:00,
2013-04-09 01:16:00,60.9,47.9,30.26,SE,135,0.0,0.0,62,0.00,,,0.00,WUHU216HW,2013-04-09 05:16:00,
2013-04-09 01:21:00,60.6,48.0,30.26,SE,135,0.0,0.0,63,0.00,,,0.00,WUHU216HW,2013-04-09 05:21:00,
2013-04-09 01:26:00,60.6,48.0,30.26,SSE,158,0.0,0.0,63,0.00,,,0.00,WUHU216HW,2013-04-09 05:26:00,
2013-04-09 01:31:00,60.4,47.8,30.26,SSE,158,0.0,0.0,63,0.00,,,0.00,WUHU216HW,2013-04-09 05:31:00,
2013-04-09 01:36:00,60.0,47.4,30.26,SSE,158,0.0,0.0,63,0.00,,,0.00,WUHU216HW,2013-04-09 05:36:00,
2013-04-09 01:41:00,60.0,47.4,30.26,SSE,158,0.0,0.0,63,0.00,,,0.00,WUHU216HW,2013-04-09 05:41:00,
2013-04-09 01:46:00,59.7,47.5,30.26,SSE,158,0.0,0.0,64,0.00,,,0.00,WUHU216HW,2013-04-09 05:46:00,
2013-04-09 01:51:00,59.5,47.3,30.26,SSE,158,0.0,0.0,64,0.00,,,0.00,WUHU216HW,2013-04-09 05:51:00,
2013-04-09 01:56:00,59.3,47.1,30.26,SSE,158,0.0,0.0,64,0.00,,,0.00,WUHU216HW,2013-04-09 05:56:00,
2013-04-09 02:02:00,59.1,46.9,30.26,SSE,158,0.0,0.0,64,0.00,,,0.00,WUHU216HW,2013-04-09 06:02:00,
2013-04-09 02:07:00,58.8,47.0,30.26,SSE,158,0.0,0.0,65,0.00,,,0.00,WUHU216HW,2013-04-09 06:07:00,
2013-04-09 02:12:00,58.8,47.0,30.26,SSE,158,0.0,0.0,65,0.00,,,0.00,WUHU216HW,2013-04-09 06:12:00,
2013-04-09 02:17:00,58.8,47.0,30.26,SE,135,0.0,0.0,65,0.00,,,0.00,WUHU216HW,2013-04-09 06:17:00,
2013-04-09 02:22:00,58.8,47.0,30.26,SE,135,0.0,0.0,65,0.00,,,0.00,WUHU216HW,2013-04-09 06:22:00,
2013-04-09 02:27:00,58.8,47.4,30.26,SE,135,0.0,0.0,66,0.00,,,0.00,WUHU216HW,2013-04-09 06:27:00,
2013-04-09 02:32:00,58.8,47.0,30.26,SE,135,0.0,0.0,65,0.00,,,0.00,WUHU216HW,2013-04-09 06:32:00,
2013-04-09 02:37:00,58.8,47.0,30.26,SE,135,0.0,0.0,65,0.00,,,0.00,WUHU216HW,2013-04-09 06:37:00,
2013-04-09 02:42:00,58.2,46.8,30.26,SE,135,0.0,0.0,66,0.00,,,0.00,WUHU216HW,2013-04-09 06:42:00,
2013-04-09 02:47:00,58.1,46.3,30.26,SE,135,0.0,0.0,65,0.00,,,0.00,WUHU216HW,2013-04-09 06:47:00,
2013-04-09 02:52:00,57.7,46.4,30.26,SE,135,0.0,0.0,66,0.00,,,0.00,WUHU216HW,2013-04-09 06:52:00,
2013-04-09 02:57:00,57.3,46.0,30.25,SE,135,0.0,0.0,66,0.00,,,0.00,WUHU216HW,2013-04-09 06:57:00,
2013-04-09 03:02:00,57.0,45.7,30.26,SE,135,0.0,0.0,66,0.00,,,0.00,WUHU216HW,2013-04-09 07:02:00,
2013-04-09 03:07:00,57.0,46.1,30.26,SE,135,0.0,0.0,67,0.00,,,0.00,WUHU216HW,2013-04-09 07:07:00,
2013-04-09 03:12:00,56.4,45.6,30.26,SE,135,0.0,0.0,67,0.00,,,0.00,WUHU216HW,2013-04-09 07:12:00,
2013-04-09 03:17:00,56.3,45.4,30.26,SE,135,0.0,0.0,67,0.00,,,0.00,WUHU216HW,2013-04-09 07:17:00,
2013-04-09 03:22:00,55.9,45.5,30.26,SE,135,0.0,0.0,68,0.00,,,0.00,WUHU216HW,2013-04-09 07:22:00,
2013-04-09 03:27:00,55.5,45.6,30.26,SE,135,0.0,0.0,69,0.00,,,0.00,WUHU216HW,2013-04-09 07:27:00,
2013-04-09 03:32:00,55.4,45.4,30.26,SE,135,0.0,0.0,69,0.00,,,0.00,WUHU216HW,2013-04-09 07:32:00,
2013-04-09 03:37:00,55.2,45.2,30.26,SE,135,0.0,0.0,69,0.00,,,0.00,WUHU216HW,2013-04-09 07:37:00,
2013-04-09 03:42:00,54.6,44.7,30.26,SE,135,0.0,0.0,69,0.00,,,0.00,WUHU216HW,2013-04-09 07:42:00,
2013-04-09 03:47:00,54.5,44.5,30.26,SE,135,0.0,0.0,69,0.00,,,0.00,WUHU216HW,2013-04-09 07:47:00,
2013-04-09 03:52:00,54.3,44.3,30.26,SE,135,0.0,0.0,69,0.00,,,0.00,WUHU216HW,2013-04-09 07:52:00,
2013-04-09 03:57:00,54.1,44.1,30.26,SE,135,0.0,0.0,69,0.00,,,0.00,WUHU216HW,2013-04-09 07:57:00,
2013-04-09 04:02:00,53.9,44.0,30.26,SE,135,0.0,0.0,69,0.00,,,0.00,WUHU216HW,2013-04-09 08:02:00,
2013-04-09 04:07:00,53.7,44.2,30.26,SE,135,0.0,0.0,70,0.00,,,0.00,WUHU216HW,2013-04-09 08:07:00,
2013-04-09 04:12:00,53.6,44.0,30.27,SE,135,0.0,0.0,70,0.00,,,0.00,WUHU216HW,2013-04-09 08:12:00,
2013-04-09 04:17:00,53.4,43.8,30.26,SE,135,0.0,0.0,70,0.00,,,0.00,WUHU216HW,2013-04-09 08:17:00,
2013-04-09 04:22:00,53.2,44.0,30.27,SE,135,0.0,0.0,71,0.00,,,0.00,WUHU216HW,2013-04-09 08:22:00,
2013-04-09 04:27:00,53.0,43.9,30.26,SE,135,0.0,0.0,71,0.00,,,0.00,WUHU216HW,2013-04-09 08:27:00,
2013-04-09 04:32:00,52.8,43.7,30.27,SE,135,0.0,0.0,71,0.00,,,0.00,WUHU216HW,2013-04-09 08:32:00,
2013-04-09 04:37:00,52.8,43.7,30.27,SE,135,0.0,0.0,71,0.00,,,0.00,WUHU216HW,2013-04-09 08:37:00,
2013-04-09 04:42:00,52.5,43.4,30.27,SE,135,0.0,0.0,71,0.00,,,0.00,WUHU216HW,2013-04-09 08:42:00,
2013-04-09 04:47:00,52.3,43.2,30.27,SE,135,0.0,0.0,71,0.00,,,0.00,WUHU216HW,2013-04-09 08:47:00,
2013-04-09 04:52:00,52.3,43.2,30.27,SE,135,0.0,0.0,71,0.00,,,0.00,WUHU216HW,2013-04-09 08:52:00,
2013-04-09 04:57:00,51.9,43.2,30.27,SE,135,0.0,0.0,72,0.00,,,0.00,WUHU216HW,2013-04-09 08:57:00,
2013-04-09 05:02:00,51.8,43.1,30.27,SE,135,0.0,0.0,72,0.00,,,0.00,WUHU216HW,2013-04-09 09:02:00,
2013-04-09 05:07:00,51.6,42.9,30.28,SE,135,0.0,0.0,72,0.00,,,0.00,WUHU216HW,2013-04-09 09:07:00,
2013-04-09 05:12:00,51.4,42.7,30.28,SE,135,0.0,0.0,72,0.00,,,0.00,WUHU216HW,2013-04-09 09:12:00,
2013-04-09 05:17:00,51.4,42.7,30.28,SE,135,0.0,0.0,72,0.00,,,0.00,WUHU216HW,2013-04-09 09:17:00,
2013-04-09 05:22:00,51.0,42.4,30.28,SE,135,0.0,0.0,72,0.00,,,0.00,WUHU216HW,2013-04-09 09:22:00,
2013-04-09 05:27:00,50.9,42.2,30.28,SE,135,0.0,0.0,72,0.00,,,0.00,WUHU216HW,2013-04-09 09:27:00,
2013-04-09 05:32:00,50.7,42.3,30.28,SE,135,0.0,0.0,73,0.00,,,0.00,WUHU216HW,2013-04-09 09:32:00,
2013-04-09 05:37:00,50.7,42.3,30.28,SE,135,0.0,0.0,73,0.00,,,0.00,WUHU216HW,2013-04-09 09:37:00,
2013-04-09 05:42:00,50.3,42.0,30.28,SE,135,0.0,0.0,73,0.00,,,0.00,WUHU216HW,2013-04-09 09:42:00,
2013-04-09 05:47:00,50.1,41.8,30.29,SE,135,0.0,0.0,73,0.00,,,0.00,WUHU216HW,2013-04-09 09:47:00,
2013-04-09 05:52:00,50.1,41.8,30.29,SE,135,0.0,0.0,73,0.00,,,0.00,WUHU216HW,2013-04-09 09:52:00,
2013-04-09 05:57:00,50.0,42.0,30.29,SE,135,0.0,0.0,74,0.00,,,0.00,WUHU216HW,2013-04-09 09:57:00,
2013-04-09 06:02:00,49.8,41.8,30.29,SE,135,0.0,0.0,74,0.00,,,0.00,WUHU216HW,2013-04-09 10:02:00,
2013-04-09 06:07:00,49.8,41.8,30.29,SE,135,0.0,0.0,74,0.00,,,0.00,WUHU216HW,2013-04-09 10:07:00,
2013-04-09 06:12:00,49.6,41.6,30.29,SE,135,0.0,0.0,74,0.00,,,0.00,WUHU216HW,2013-04-09 10:12:00,
2013-04-09 06:17:00,49.2,41.2,30.29,SE,135,0.0,0.0,74,0.00,,,0.00,WUHU216HW,2013-04-09 10:17:00,
2013-04-09 06:22:00,49.2,41.2,30.29,SE,135,0.0,0.0,74,0.00,,,0.00,WUHU216HW,2013-04-09 10:22:00,
2013-04-09 06:27:00,49.1,41.4,30.29,SE,135,0.0,0.0,75,0.00,,,0.00,WUHU216HW,2013-04-09 10:27:00,
2013-04-09 06:32:00,49.1,41.4,30.29,SE,135,0.0,0.0,75,0.00,,,0.00,WUHU216HW,2013-04-09 10:32:00,
2013-04-09 06:37:00,48.9,41.2,30.29,SE,135,0.0,0.0,75,0.00,,,0.00,WUHU216HW,2013-04-09 10:37:00,
2013-04-09 06:42:00,48.7,41.0,30.30,SE,135,0.0,0.0,75,0.00,,,0.00,WUHU216HW,2013-04-09 10:42:00,
2013-04-09 06:47:00,48.5,40.9,30.30,SE,135,0.0,0.0,75,0.00,,,0.00,WUHU216HW,2013-04-09 10:47:00,
2013-04-09 06:52:00,48.3,40.7,30.31,SE,135,0.0,0.0,75,0.00,,,0.00,WUHU216HW,2013-04-09 10:52:00,
2013-04-09 06:57:00,48.3,40.7,30.31,SE,135,0.0,0.0,75,0.00,,,0.00,WUHU216HW,2013-04-09 10:57:00,
2013-04-09 07:02:00,48.2,40.5,30.31,SE,135,0.0,0.0,75,0.00,,,0.00,WUHU216HW,2013-04-09 11:02:00,
2013-04-09 07:07:00,48.0,40.7,30.31,SE,135,0.0,0.0,76,0.00,,,0.00,WUHU216HW,2013-04-09 11:07:00,
2013-04-09 07:12:00,48.0,40.7,30.31,SE,135,0.0,0.0,76,0.00,,,0.00,WUHU216HW,2013-04-09 11:12:00,
2013-04-09 07:17:00,47.8,40.5,30.32,SE,135,0.0,0.0,76,0.00,,,0.00,WUHU216HW,2013-04-09 11:17:00,
2013-04-09 07:22:00,47.8,40.5,30.32,SE,135,0.0,0.0,76,0.00,,,0.00,WUHU216HW,2013-04-09 11:22:00,
2013-04-09 07:27:00,47.8,40.5,30.32,SE,135,0.0,0.0,76,0.00,,,0.00,WUHU216HW,2013-04-09 11:27:00,
2013-04-09 07:32:00,47.8,40.5,30.32,SE,135,0.0,0.0,76,0.00,,,0.00,WUHU216HW,2013-04-09 11:32:00,
2013-04-09 07:37:00,47.6,40.7,30.32,SE,135,0.0,0.0,77,0.00,,,0.00,WUHU216HW,2013-04-09 11:37:00,
2013-04-09 07:42:00,47.6,40.7,30.32,SE,135,0.0,0.0,77,0.00,,,0.00,WUHU216HW,2013-04-09 11:42:00,
2013-04-09 07:47:00,47.4,40.7,30.32,SE,135,0.0,0.0,77,0.00,,,0.00,WUHU216HW,2013-04-09 11:47:00,
2013-04-09 07:52:00,47.6,40.7,30.32,SE,135,0.0,0.0,77,0.00,,,0.00,WUHU216HW,2013-04-09 11:52:00,
2013-04-09 07:58:00,47.8,40.9,30.32,SE,135,0.0,0.0,77,0.00,,,0.00,WUHU216HW,2013-04-09 11:58:00,
2013-04-09 08:03:00,47.6,40.7,30.33,SE,135,0.0,0.0,77,0.00,,,0.00,WUHU216HW,2013-04-09 12:03:00,
2013-04-09 08:08:00,47.8,41.2,30.33,SE,135,0.0,0.0,78,0.00,,,0.00,WUHU216HW,2013-04-09 12:08:00,
2013-04-09 08:13:00,48.0,41.7,30.33,SE,135,0.0,0.0,79,0.00,,,0.00,WUHU216HW,2013-04-09 12:13:00,
2013-04-09 08:18:00,48.0,41.7,30.33,SE,135,0.0,0.0,79,0.00,,,0.00,WUHU216HW,2013-04-09 12:18:00,
2013-04-09 08:23:00,48.2,42.2,30.34,SE,135,0.0,0.0,80,0.00,,,0.00,WUHU216HW,2013-04-09 12:23:00,
2013-04-09 08:28:00,48.3,42.4,30.34,SE,135,0.0,0.0,80,0.00,,,0.00,WUHU216HW,2013-04-09 12:28:00,
2013-04-09 08:33:00,48.7,43.1,30.34,SE,135,0.0,0.0,81,0.00,,,0.00,WUHU216HW,2013-04-09 12:33:00,
2013-04-09 08:38:00,49.2,43.6,30.34,SE,135,0.0,0.0,81,0.00,,,0.00,WUHU216HW,2013-04-09 12:38:00,
2013-04-09 08:43:00,49.6,44.0,30.34,SE,135,0.0,0.0,81,0.00,,,0.00,WUHU216HW,2013-04-09 12:43:00,
2013-04-09 08:48:00,49.8,44.4,30.34,SE,135,0.0,0.0,82,0.00,,,0.00,WUHU216HW,2013-04-09 12:48:00,
2013-04-09 08:53:00,50.1,44.5,30.34,SE,135,0.0,0.0,81,0.00,,,0.00,WUHU216HW,2013-04-09 12:53:00,
2013-04-09 08:58:00,50.5,44.9,30.34,SE,135,0.0,0.0,81,0.00,,,0.00,WUHU216HW,2013-04-09 12:58:00,
2013-04-09 09:03:00,50.7,45.0,30.34,SE,135,0.0,0.0,81,0.00,,,0.00,WUHU216HW,2013-04-09 13:03:00,
2013-04-09 09:08:00,51.4,46.1,30.34,SE,135,0.0,0.0,82,0.00,,,0.00,WUHU216HW,2013-04-09 13:08:00,
2013-04-09 09:13:00,51.8,46.1,30.34,SE,135,0.0,0.0,81,0.00,,,0.00,WUHU216HW,2013-04-09 13:13:00,
2013-04-09 09:18:00,52.1,46.5,30.34,SE,135,0.0,0.0,81,0.00,,,0.00,WUHU216HW,2013-04-09 13:18:00,
2013-04-09 09:23:00,52.7,47.3,30.34,SE,135,0.0,0.0,82,0.00,,,0.00,WUHU216HW,2013-04-09 13:23:00,
2013-04-09 09:28:00,53.2,47.9,30.34,SE,135,0.0,0.0,82,0.00,,,0.00,WUHU216HW,2013-04-09 13:28:00,
2013-04-09 09:33:00,53.9,48.5,30.34,SE,135,0.0,0.0,82,0.00,,,0.00,WUHU216HW,2013-04-09 13:33:00,
2013-04-09 09:38:00,55.0,49.2,30.34,SE,135,0.0,0.0,81,0.00,,,0.00,WUHU216HW,2013-04-09 13:38:00,
2013-04-09 09:43:00,55.4,49.6,30.34,SE,135,0.0,0.0,81,0.00,,,0.00,WUHU216HW,2013-04-09 13:43:00,
2013-04-09 09:48:00,56.4,50.0,30.34,SE,135,0.0,0.0,80,0.00,,,0.00,WUHU216HW,2013-04-09 13:48:00,
2013-04-09 09:53:00,57.0,50.5,30.34,SE,135,0.0,0.0,79,0.00,,,0.00,WUHU216HW,2013-04-09 13:53:00,
2013-04-09 09:58:00,57.5,51.0,30.34,SE,135,0.0,0.0,79,0.00,,,0.00,WUHU216HW,2013-04-09 13:58:00,
2013-04-09 10:03:00,58.4,51.6,30.34,SE,135,0.0,0.0,78,0.00,,,0.00,WUHU216HW,2013-04-09 14:03:00,
2013-04-09 10:08:00,58.8,51.6,30.34,SSE,158,0.0,0.0,77,0.00,,,0.00,WUHU216HW,2013-04-09 14:08:00,
2013-04-09 10:13:00,58.8,51.6,30.34,SSE,158,0.0,0.0,77,0.00,,,0.00,WUHU216HW,2013-04-09 14:13:00,
2013-04-09 10:18:00,60.0,52.5,30.35,SSE,158,0.0,0.0,76,0.00,,,0.00,WUHU216HW,2013-04-09 14:18:00,
2013-04-09 10:23:00,60.6,53.0,30.35,SSE,158,0.0,0.0,76,0.00,,,0.00,WUHU216HW,2013-04-09 14:23:00,
2013-04-09 10:28:00,60.9,53.0,30.35,SSE,158,0.0,0.0,75,0.00,,,0.00,WUHU216HW,2013-04-09 14:28:00,
2013-04-09 10:33:00,61.7,53.5,30.35,SSE,158,0.0,0.0,74,0.00,,,0.00,WUHU216HW,2013-04-09 14:33:00,
2013-04-09 10:38:00,62.4,53.6,30.35,SE,135,0.0,0.0,73,0.00,,,0.00,WUHU216HW,2013-04-09 14:38:00,
2013-04-09 10:43:00,63.1,53.9,30.35,SE,135,0.0,0.0,72,0.00,,,0.00,WUHU216HW,2013-04-09 14:43:00,
2013-04-09 10:48:00,63.6,54.1,30.34,South,180,0.0,0.0,70,0.00,,,0.00,WUHU216HW,2013-04-09 14:48:00,
2013-04-09 10:53:00,64.5,54.6,30.34,South,180,0.0,0.0,70,0.00,,,0.00,WUHU216HW,2013-04-09 14:53:00,
2013-04-09 10:58:00,65.1,55.1,30.34,South,180,0.0,0.0,70,0.00,,,0.00,WUHU216HW,2013-04-09 14:58:00,
2013-04-09 11:03:00,66.2,55.7,30.34,South,180,0.0,0.0,69,0.00,,,0.00,WUHU216HW,2013-04-09 15:03:00,
2013-04-09 11:08:00,66.9,55.9,30.34,SSW,203,0.0,0.0,68,0.00,,,0.00,WUHU216HW,2013-04-09 15:08:00,
2013-04-09 11:13:00,67.8,56.8,30.34,SSW,203,0.0,0.0,68,0.00,,,0.00,WUHU216HW,2013-04-09 15:13:00,
2013-04-09 11:18:00,68.7,55.7,30.34,NW,315,0.0,0.0,63,0.00,,,0.00,WUHU216HW,2013-04-09 15:18:00,
2013-04-09 11:23:00,69.6,56.8,30.34,WSW,248,0.0,0.0,64,0.00,,,0.00,WUHU216HW,2013-04-09 15:23:00,
2013-04-09 11:28:00,70.3,57.9,30.34,WSW,248,0.0,0.0,65,0.00,,,0.00,WUHU216HW,2013-04-09 15:28:00,
2013-04-09 11:33:00,70.8,57.6,30.34,WSW,248,0.0,0.0,63,0.00,,,0.00,WUHU216HW,2013-04-09 15:33:00,
2013-04-09 11:38:00,71.9,58.2,30.34,WNW,293,0.0,0.0,62,0.00,,,0.00,WUHU216HW,2013-04-09 15:38:00,
2013-04-09 11:43:00,72.6,58.4,30.34,SE,135,0.0,0.0,61,0.00,,,0.00,WUHU216HW,2013-04-09 15:43:00,
2013-04-09 11:49:00,73.5,57.6,30.34,NNW,338,0.0,0.0,58,0.00,,,0.00,WUHU216HW,2013-04-09 15:49:00,
2013-04-09 11:54:00,74.1,57.8,30.34,WSW,248,0.0,0.0,57,0.00,,,0.00,WUHU216HW,2013-04-09 15:54:00,
2013-04-09 11:59:00,74.8,57.5,30.34,NW,315,0.0,0.0,55,0.00,,,0.00,WUHU216HW,2013-04-09 15:59:00,
2013-04-09 12:04:00,75.0,57.7,30.34,North,0,0.0,0.0,55,0.00,,,0.00,WUHU216HW,2013-04-09 16:04:00,
2013-04-09 12:09:00,75.7,56.8,30.34,North,0,0.0,0.0,52,0.00,,,0.00,WUHU216HW,2013-04-09 16:09:00,
2013-04-09 12:14:00,76.2,57.3,30.34,North,0,0.0,0.0,52,0.00,,,0.00,WUHU216HW,2013-04-09 16:14:00,
2013-04-09 12:19:00,76.2,55.7,30.34,North,0,0.0,0.0,49,0.00,,,0.00,WUHU216HW,2013-04-09 16:19:00,
2013-04-09 12:24:00,76.4,57.5,30.33,North,0,0.0,0.0,52,0.00,,,0.00,WUHU216HW,2013-04-09 16:24:00,
2013-04-09 12:29:00,76.8,57.3,30.33,WSW,248,0.0,0.0,51,0.00,,,0.00,WUHU216HW,2013-04-09 16:29:00,
2013-04-09 12:34:00,77.7,58.1,30.33,WSW,248,0.0,0.0,51,0.00,,,0.00,WUHU216HW,2013-04-09 16:34:00,
2013-04-09 12:40:00,78.0,57.9,30.33,SSE,158,0.0,0.0,50,0.00,,,0.00,WUHU216HW,2013-04-09 16:40:00,
2013-04-09 12:45:00,78.6,58.4,30.33,SW,225,0.0,0.0,50,0.00,,,0.00,WUHU216HW,2013-04-09 16:45:00,
2013-04-09 12:50:00,78.9,57.5,30.33,SSE,158,3.3,3.3,48,0.00,,,0.00,WUHU216HW,2013-04-09 16:50:00,
2013-04-09 12:55:00,79.3,57.9,30.32,WSW,248,0.0,3.3,48,0.00,,,0.00,WUHU216HW,2013-04-09 16:55:00,
2013-04-09 13:00:00,79.7,57.6,30.32,SW,225,0.0,4.4,47,0.00,,,0.00,WUHU216HW,2013-04-09 17:00:00,
2013-04-09 13:05:00,80.2,58.1,30.32,SE,135,4.9,4.9,47,0.00,,,0.00,WUHU216HW,2013-04-09 17:05:00,
2013-04-09 13:10:00,80.4,57.6,30.32,SE,135,0.0,4.9,46,0.00,,,0.00,WUHU216HW,2013-04-09 17:10:00,
2013-04-09 13:15:00,80.7,57.9,30.32,ESE,113,5.8,5.8,46,0.00,,,0.00,WUHU216HW,2013-04-09 17:15:00,
2013-04-09 13:20:00,80.9,58.1,30.32,SSW,203,0.0,5.8,46,0.00,,,0.00,WUHU216HW,2013-04-09 17:20:00,
2013-04-09 13:25:00,81.1,58.2,30.32,WSW,248,0.0,0.0,46,0.00,,,0.00,WUHU216HW,2013-04-09 17:25:00,
2013-04-09 13:30:00,81.3,57.2,30.31,WSW,248,2.0,2.0,44,0.00,,,0.00,WUHU216HW,2013-04-09 17:30:00,
2013-04-09 13:35:00,81.5,57.3,30.31,West,270,5.1,5.1,45,0.00,,,0.00,WUHU216HW,2013-04-09 17:35:00,
2013-04-09 13:40:00,81.6,58.1,30.31,WSW,248,0.0,5.1,45,0.00,,,0.00,WUHU216HW,2013-04-09 17:40:00,
2013-04-09 13:45:00,82.0,57.8,30.31,SW,225,0.0,5.1,44,0.00,,,0.00,WUHU216HW,2013-04-09 17:45:00,
2013-04-09 13:50:00,82.2,58.0,30.31,SE,135,0.0,0.0,44,0.00,,,0.00,WUHU216HW,2013-04-09 17:50:00,
2013-04-09 13:55:00,82.5,57.7,30.31,South,180,0.0,5.3,43,0.00,,,0.00,WUHU216HW,2013-04-09 17:55:00,
2013-04-09 14:00:00,82.5,58.3,30.30,SSE,158,0.0,5.3,44,0.00,,,0.00,WUHU216HW,2013-04-09 18:00:00,
2013-04-09 14:05:00,82.5,58.3,30.30,WSW,248,0.0,0.0,44,0.00,,,0.00,WUHU216HW,2013-04-09 18:05:00,
2013-04-09 14:10:00,82.7,58.5,30.30,WSW,248,0.0,0.0,44,0.00,,,0.00,WUHU216HW,2013-04-09 18:10:00,
2013-04-09 14:15:00,83.1,58.8,30.29,WSW,248,0.0,0.0,44,0.00,,,0.00,WUHU216HW,2013-04-09 18:15:00,
2013-04-09 14:20:00,83.6,59.2,30.29,SE,135,0.0,3.8,44,0.00,,,0.00,WUHU216HW,2013-04-09 18:20:00,
2013-04-09 14:25:00,84.0,58.4,30.29,WSW,248,0.0,5.3,42,0.00,,,0.00,WUHU216HW,2013-04-09 18:25:00,
2013-04-09 14:30:00,84.0,58.4,30.29,WSW,248,0.0,5.3,42,0.00,,,0.00,WUHU216HW,2013-04-09 18:30:00,
2013-04-09 14:35:00,84.3,58.8,30.29,WSW,248,0.0,0.0,42,0.00,,,0.00,WUHU216HW,2013-04-09 18:35:00,
2013-04-09 14:40:00,84.5,58.3,30.29,WSW,248,0.0,0.0,41,0.00,,,0.00,WUHU216HW,2013-04-09 18:40:00,
2013-04-09 14:45:00,85.1,59.4,30.29,WSW,248,0.0,0.0,42,0.00,,,0.00,WUHU216HW,2013-04-09 18:45:00,
2013-04-09 14:50:00,85.6,59.9,30.28,WSW,248,0.0,0.0,42,0.00,,,0.00,WUHU216HW,2013-04-09 18:50:00,
2013-04-09 14:55:00,85.8,59.4,30.28,WSW,248,0.0,0.0,41,0.00,,,0.00,WUHU216HW,2013-04-09 18:55:00,
2013-04-09 15:00:00,86.1,59.7,30.28,WSW,248,0.0,0.0,41,0.00,,,0.00,WUHU216HW,2013-04-09 19:00:00,
2013-04-09 15:05:00,86.1,58.3,30.27,WSW,248,0.4,7.6,39,0.00,,,0.00,WUHU216HW,2013-04-09 19:05:00,
2013-04-09 15:10:00,86.1,58.3,30.27,WSW,248,0.0,7.6,39,0.00,,,0.00,WUHU216HW,2013-04-09 19:10:00,
2013-04-09 15:16:00,86.3,59.3,30.27,WSW,248,0.0,0.0,40,0.00,,,0.00,WUHU216HW,2013-04-09 19:16:00,
2013-04-09 15:21:00,86.3,59.3,30.27,WSW,248,0.0,0.0,40,0.00,,,0.00,WUHU216HW,2013-04-09 19:21:00,
2013-04-09 15:26:00,86.7,59.6,30.26,WSW,248,0.0,0.0,40,0.00,,,0.00,WUHU216HW,2013-04-09 19:26:00,
2013-04-09 15:31:00,87.6,61.0,30.27,WSW,248,0.0,0.0,41,0.00,,,0.00,WUHU216HW,2013-04-09 19:31:00,
2013-04-09 15:36:00,87.8,60.6,30.26,WSW,248,0.0,0.0,40,0.00,,,0.00,WUHU216HW,2013-04-09 19:36:00,
2013-04-09 15:41:00,87.8,60.6,30.26,WSW,248,0.0,0.0,40,0.00,,,0.00,WUHU216HW,2013-04-09 19:41:00,
2013-04-09 15:46:00,87.4,59.4,30.26,SE,135,0.0,0.0,39,0.00,,,0.00,WUHU216HW,2013-04-09 19:46:00,
2013-04-09 15:51:00,86.9,59.0,30.25,SE,135,0.0,0.0,39,0.00,,,0.00,WUHU216HW,2013-04-09 19:51:00,
2013-04-09 15:56:00,86.1,58.5,30.25,SE,135,0.0,0.0,39,0.00,,,0.00,WUHU216HW,2013-04-09 19:56:00,
2013-04-09 16:01:00,85.6,57.8,30.25,SE,135,0.0,0.0,39,0.00,,,0.00,WUHU216HW,2013-04-09 20:01:00,
2013-04-09 16:06:00,85.6,57.8,30.24,SE,135,0.0,0.0,39,0.00,,,0.00,WUHU216HW,2013-04-09 20:06:00,
2013-04-09 16:11:00,85.6,57.8,30.24,SE,135,0.0,0.0,39,0.00,,,0.00,WUHU216HW,2013-04-09 20:11:00,
2013-04-09 16:16:00,83.8,57.0,30.24,SSE,158,0.0,1.5,40,0.00,,,0.00,WUHU216HW,2013-04-09 20:16:00,
2013-04-09 16:21:00,83.4,57.3,30.24,SSE,158,0.0,1.5,41,0.00,,,0.00,WUHU216HW,2013-04-09 20:21:00,
2013-04-09 16:26:00,83.4,57.3,30.24,SSE,158,0.0,0.0,41,0.00,,,0.00,WUHU216HW,2013-04-09 20:26:00,
2013-04-09 16:31:00,83.4,57.3,30.24,SSE,158,0.0,0.0,41,0.00,,,0.00,WUHU216HW,2013-04-09 20:31:00,
2013-04-09 16:49:00,82.0,56.6,30.24,SE,135,0.0,0.0,42,0.00,,,0.00,WUHU216HW,2013-04-09 20:49:00,
2013-04-09 16:54:00,81.6,56.3,30.24,SSE,158,2.0,2.0,42,0.00,,,0.00,WUHU216HW,2013-04-09 20:54:00,
2013-04-09 16:59:00,81.5,56.1,30.24,SE,135,0.0,2.0,42,0.00,,,0.00,WUHU216HW,2013-04-09 20:59:00,
2013-04-09 17:04:00,81.3,56.0,30.24,SE,135,0.0,2.0,42,0.00,,,0.00,WUHU216HW,2013-04-09 21:04:00,
2013-04-09 17:09:00,81.1,55.8,30.23,SE,135,2.9,2.9,43,0.00,,,0.00,WUHU216HW,2013-04-09 21:09:00,
2013-04-09 17:14:00,81.1,56.4,30.23,SSE,158,0.6,2.9,43,0.00,,,0.00,WUHU216HW,2013-04-09 21:14:00,
2013-04-09 17:19:00,80.9,56.3,30.24,SE,135,3.8,3.8,43,0.00,,,0.00,WUHU216HW,2013-04-09 21:19:00,
2013-04-09 17:24:00,80.7,56.1,30.23,SE,135,0.0,3.8,43,0.00,,,0.00,WUHU216HW,2013-04-09 21:24:00,
2013-04-09 17:29:00,80.6,55.9,30.23,SE,135,0.0,10.5,43,0.00,,,0.00,WUHU216HW,2013-04-09 21:29:00,
2013-04-09 17:34:00,80.4,55.8,30.23,WSW,248,0.8,10.5,43,0.00,,,0.00,WUHU216HW,2013-04-09 21:34:00,
2013-04-09 17:39:00,80.4,56.4,30.23,SE,135,5.1,5.1,44,0.00,,,0.00,WUHU216HW,2013-04-09 21:39:00,
2013-04-09 17:44:00,80.4,56.4,30.23,ESE,113,0.0,5.1,44,0.00,,,0.00,WUHU216HW,2013-04-09 21:44:00,
2013-04-09 17:49:00,80.4,56.4,30.23,WSW,248,1.1,5.1,44,0.00,,,0.00,WUHU216HW,2013-04-09 21:49:00,
2013-04-09 17:54:00,80.2,56.2,30.23,SSE,158,0.0,1.1,45,0.00,,,0.00,WUHU216HW,2013-04-09 21:54:00,
2013-04-09 17:59:00,79.8,55.9,30.23,SE,135,0.0,0.6,44,0.00,,,0.00,WUHU216HW,2013-04-09 21:59:00,
2013-04-09 18:04:00,79.8,55.9,30.24,SE,135,7.3,7.3,44,0.00,,,0.00,WUHU216HW,2013-04-09 22:04:00,
2013-04-09 18:09:00,79.3,55.4,30.24,SSE,158,0.0,7.3,44,0.00,,,0.00,WUHU216HW,2013-04-09 22:09:00,
2013-04-09 18:14:00,79.3,56.0,30.24,SSE,158,0.0,0.0,45,0.00,,,0.00,WUHU216HW,2013-04-09 22:14:00,
2013-04-09 18:20:00,78.9,55.7,30.24,SE,135,5.3,5.3,45,0.00,,,0.00,WUHU216HW,2013-04-09 22:20:00,
2013-04-09 18:25:00,78.6,55.4,30.24,SSE,158,1.3,5.3,45,0.00,,,0.00,WUHU216HW,2013-04-09 22:25:00,
2013-04-09 18:30:00,78.6,55.4,30.24,SSE,158,0.4,5.3,45,0.00,,,0.00,WUHU216HW,2013-04-09 22:30:00,
2013-04-09 18:35:00,78.0,55.5,30.24,SE,135,0.0,0.4,46,0.00,,,0.00,WUHU216HW,2013-04-09 22:35:00,
2013-04-09 18:40:00,77.9,55.3,30.23,SE,135,0.0,1.3,46,0.00,,,0.00,WUHU216HW,2013-04-09 22:40:00,
2013-04-09 18:45:00,77.5,55.0,30.24,SSE,158,0.0,1.3,46,0.00,,,0.00,WUHU216HW,2013-04-09 22:45:00,
2013-04-09 18:50:00,77.3,55.5,30.24,SE,135,0.0,1.1,47,0.00,,,0.00,WUHU216HW,2013-04-09 22:50:00,
2013-04-09 18:55:00,77.1,55.3,30.24,SSE,158,0.0,9.8,47,0.00,,,0.00,WUHU216HW,2013-04-09 22:55:00,
2013-04-09 19:00:00,76.8,55.0,30.24,SSE,158,0.0,9.8,47,0.00,,,0.00,WUHU216HW,2013-04-09 23:00:00,
2013-04-09 19:05:00,76.2,54.5,30.24,SSE,158,0.0,2.4,47,0.00,,,0.00,WUHU216HW,2013-04-09 23:05:00,
2013-04-09 19:10:00,75.9,54.8,30.24,SE,135,2.6,2.6,48,0.00,,,0.00,WUHU216HW,2013-04-09 23:10:00,
2013-04-09 19:15:00,75.7,54.6,30.23,SE,135,0.0,2.6,48,0.00,,,0.00,WUHU216HW,2013-04-09 23:15:00,
2013-04-09 19:20:00,75.3,54.3,30.23,SSE,158,0.0,6.7,48,0.00,,,0.00,WUHU216HW,2013-04-09 23:20:00,
2013-04-09 19:25:00,75.0,54.6,30.23,SE,135,0.0,6.7,49,0.00,,,0.00,WUHU216HW,2013-04-09 23:25:00,
2013-04-09 19:30:00,74.8,54.4,30.23,ESE,113,0.6,0.6,49,0.00,,,0.00,WUHU216HW,2013-04-09 23:30:00,
2013-04-09 19:35:00,74.4,54.0,30.24,SE,135,0.0,0.6,49,0.00,,,0.00,WUHU216HW,2013-04-09 23:35:00,
2013-04-09 19:40:00,74.3,53.8,30.23,SSE,158,2.9,2.9,49,0.00,,,0.00,WUHU216HW,2013-04-09 23:40:00,
2013-04-09 19:45:00,74.1,54.3,30.24,SE,135,0.0,2.9,50,0.00,,,0.00,WUHU216HW,2013-04-09 23:45:00,
2013-04-09 19:50:00,73.7,53.9,30.24,SE,135,0.0,4.0,50,0.00,,,0.00,WUHU216HW,2013-04-09 23:50:00,
2013-04-09 19:55:00,73.5,53.7,30.24,South,180,0.0,9.1,50,0.00,,,0.00,WUHU216HW,2013-04-09 23:55:00,
2013-04-09 20:00:00,73.2,53.4,30.23,SE,135,7.1,9.1,50,0.00,,,0.00,WUHU216HW,2013-04-10 00:00:00,
2013-04-09 20:05:00,72.8,53.7,30.24,SE,135,0.0,7.1,51,0.00,,,0.00,WUHU216HW,2013-04-10 00:05:00,
2013-04-09 20:10:00,72.6,53.4,30.24,SE,135,0.0,5.1,51,0.00,,,0.00,WUHU216HW,2013-04-10 00:10:00,
2013-04-09 20:15:00,72.3,53.1,30.24,SE,135,0.0,3.3,51,0.00,,,0.00,WUHU216HW,2013-04-10 00:15:00,
2013-04-09 20:20:00,72.1,53.4,30.24,SE,135,0.0,3.3,52,0.00,,,0.00,WUHU216HW,2013-04-10 00:20:00,
2013-04-09 20:25:00,71.7,53.1,30.24,SE,135,0.0,0.0,52,0.00,,,0.00,WUHU216HW,2013-04-10 00:25:00,
2013-04-09 20:30:00,71.7,53.4,30.24,SSE,158,3.5,3.5,52,0.00,,,0.00,WUHU216HW,2013-04-10 00:30:00,
2013-04-09 20:35:00,71.4,53.3,30.25,SE,135,0.0,3.5,53,0.00,,,0.00,WUHU216HW,2013-04-10 00:35:00,
2013-04-09 20:40:00,71.4,53.3,30.24,SSE,158,0.0,9.6,53,0.00,,,0.00,WUHU216HW,2013-04-10 00:40:00,
2013-04-09 20:45:00,71.2,53.1,30.24,SSW,203,0.0,9.6,53,0.00,,,0.00,WUHU216HW,2013-04-10 00:45:00,
2013-04-09 20:50:00,71.0,53.5,30.24,SE,135,4.9,5.1,54,0.00,,,0.00,WUHU216HW,2013-04-10 00:50:00,
2013-04-09 20:55:00,70.8,53.3,30.25,SSE,158,7.1,7.1,54,0.00,,,0.00,WUHU216HW,2013-04-10 00:55:00,
2013-04-09 21:00:00,70.8,53.3,30.25,SE,135,3.8,7.1,54,0.00,,,0.00,WUHU216HW,2013-04-10 01:00:00,
2013-04-09 21:05:00,70.7,53.1,30.25,SSE,158,0.0,3.8,54,0.00,,,0.00,WUHU216HW,2013-04-10 01:05:00,
2013-04-09 21:10:00,70.5,53.0,30.25,SE,135,0.0,9.1,54,0.00,,,0.00,WUHU216HW,2013-04-10 01:10:00,
2013-04-09 21:15:00,70.3,53.3,30.24,ESE,113,3.1,10.7,55,0.00,,,0.00,WUHU216HW,2013-04-10 01:15:00,
2013-04-09 21:20:00,70.3,53.3,30.24,SE,135,3.1,10.7,55,0.00,,,0.00,WUHU216HW,2013-04-10 01:20:00,
2013-04-09 21:25:00,70.3,53.3,30.24,SE,135,0.0,3.1,55,0.00,,,0.00,WUHU216HW,2013-04-10 01:25:00,
2013-04-09 21:30:00,70.1,53.2,30.24,SSE,158,0.0,4.6,55,0.00,,,0.00,WUHU216HW,2013-04-10 01:30:00,
2013-04-09 21:35:00,69.9,53.0,30.24,SSE,158,0.0,4.6,55,0.00,,,0.00,WUHU216HW,2013-04-10 01:35:00,
2013-04-09 21:40:00,69.8,52.8,30.24,SSE,158,0.0,8.0,55,0.00,,,0.00,WUHU216HW,2013-04-10 01:40:00,
2013-04-09 21:45:00,69.6,53.2,30.25,SSE,158,1.1,8.0,56,0.00,,,0.00,WUHU216HW,2013-04-10 01:45:00,
2013-04-09 21:50:00,69.6,53.2,30.25,SE,135,0.0,3.8,56,0.00,,,0.00,WUHU216HW,2013-04-10 01:50:00,
2013-04-09 21:55:00,69.6,53.2,30.24,SSE,158,0.0,4.2,56,0.00,,,0.00,WUHU216HW,2013-04-10 01:55:00,
2013-04-09 22:01:00,69.4,53.0,30.25,SSE,158,0.0,4.2,56,0.00,,,0.00,WUHU216HW,2013-04-10 02:01:00,
2013-04-09 22:06:00,69.4,53.0,30.25,SE,135,7.8,7.8,56,0.00,,,0.00,WUHU216HW,2013-04-10 02:06:00,
2013-04-09 22:11:00,69.0,52.6,30.25,SSE,158,0.0,7.8,56,0.00,,,0.00,WUHU216HW,2013-04-10 02:11:00,
2013-04-09 22:16:00,69.0,52.6,30.25,SSE,158,0.0,0.8,56,0.00,,,0.00,WUHU216HW,2013-04-10 02:16:00,
2013-04-09 22:21:00,68.9,52.5,30.26,SSE,158,0.0,0.0,56,0.00,,,0.00,WUHU216HW,2013-04-10 02:21:00,
2013-04-09 22:26:00,68.7,52.3,30.26,SE,135,0.0,0.0,56,0.00,,,0.00,WUHU216HW,2013-04-10 02:26:00,
2013-04-09 22:31:00,68.5,52.6,30.26,SE,135,0.0,0.0,57,0.00,,,0.00,WUHU216HW,2013-04-10 02:31:00,
2013-04-09 22:36:00,68.5,52.6,30.25,ESE,113,0.0,0.0,57,0.00,,,0.00,WUHU216HW,2013-04-10 02:36:00,
2013-04-09 22:41:00,68.3,52.4,30.25,SSE,158,1.1,1.1,57,0.00,,,0.00,WUHU216HW,2013-04-10 02:41:00,
2013-04-09 22:46:00,68.1,52.3,30.25,SSE,158,0.0,5.3,57,0.00,,,0.00,WUHU216HW,2013-04-10 02:46:00,
2013-04-09 22:51:00,68.1,52.3,30.25,SE,135,0.0,5.3,57,0.00,,,0.00,WUHU216HW,2013-04-10 02:51:00,
2013-04-09 22:56:00,67.8,51.9,30.25,ESE,113,0.0,1.7,57,0.00,,,0.00,WUHU216HW,2013-04-10 02:56:00,
2013-04-09 23:01:00,67.8,51.9,30.26,SE,135,0.0,1.7,57,0.00,,,0.00,WUHU216HW,2013-04-10 03:01:00,
2013-04-09 23:06:00,67.8,51.9,30.26,SE,135,0.0,0.0,57,0.00,,,0.00,WUHU216HW,2013-04-10 03:06:00,
2013-04-09 23:11:00,67.6,52.3,30.26,ESE,113,0.0,0.0,58,0.00,,,0.00,WUHU216HW,2013-04-10 03:11:00,
2013-04-09 23:16:00,67.2,51.9,30.26,SE,135,0.0,0.0,58,0.00,,,0.00,WUHU216HW,2013-04-10 03:16:00,
2013-04-09 23:21:00,67.2,51.9,30.26,SE,135,0.0,0.0,58,0.00,,,0.00,WUHU216HW,2013-04-10 03:21:00,
2013-04-09 23:26:00,67.1,51.8,30.26,SE,135,0.0,0.0,58,0.00,,,0.00,WUHU216HW,2013-04-10 03:26:00,
2013-04-09 23:31:00,66.9,51.6,30.26,SSE,158,0.0,0.0,58,0.00,,,0.00,WUHU216HW,2013-04-10 03:31:00,
2013-04-09 23:36:00,66.9,52.1,30.26,SSE,158,2.6,2.6,59,0.00,,,0.00,WUHU216HW,2013-04-10 03:36:00,
2013-04-09 23:41:00,66.7,51.9,30.26,SE,135,0.0,2.6,59,0.00,,,0.00,WUHU216HW,2013-04-10 03:41:00,
2013-04-09 23:46:00,66.7,51.9,30.26,SE,135,0.0,0.8,59,0.00,,,0.00,WUHU216HW,2013-04-10 03:46:00,
2013-04-09 23:52:00,66.5,51.8,30.26,SSE,158,0.0,3.1,59,0.00,,,0.00,WUHU216HW,2013-04-10 03:52:00,
2013-04-09 23:57:00,66.5,51.8,30.26,SE,135,0.0,3.1,59,0.00,,,0.00,WUHU216HW,2013-04-10 03:57:00,